User: anonymous   Login
Location: Gallinara
(44.0333°N, 8.2333°E)
Time: 10:50:18
(UTC+00:00)
Language:

Cosmos 921 Rocket - Orbit

View from above orbital plane
View from above orbital plane
View from above satellite
View from above satellite

Ground track
Ground track

The orbit data is extracted from the following two-line orbital elements,

1 10096U 77055B   20337.53183292  .00000128  00000-0  15718-4 0  9995
2 10096  75.8345 273.5956 0043375 226.2970 133.4625 14.88726335350174
Epoch (UTC): 02 December 2020 12:45:50
Eccentricity: 0.0043375
inclination: 75.8345°
perigee height: 571 km
apogee height: 632 km
right ascension of ascending node: 273.5956°
argument of perigee: 226.2970°
revolutions per day: 14.88726335
mean anomaly at epoch: 133.4625°
orbit number at epoch: 35017

The dashed part of the orbit path shows where the satellite is in the earth's shadow,  

DLR